Shelton, WA
on Thursday, November 15, 2012

Thursday
Previous Day Next Day
Daily Summary
 ActualAverage (KOLM)Record (KOLM)
Temperature
Mean Temperature °F 43°F  
Max Temperature 50°F 50°F 63°F (2001)
Min Temperature 39°F 37°F -1°F (1955)
Degree Days
Heating Degree Days 20 22  
Month to date heating degree days 300  
Since 1 July heating degree days 1094  
Cooling Degree Days 0 0  
Month to date cooling degree days 0  
Year to date cooling degree days 106  
Moisture
Dew Point 41°F   
Average Humidity 94    
Maximum Humidity 100    
Minimum Humidity 77    
Precipitation
Precipitation 0.00 in 0.30 in 1.35 in (1973)
Month to date precipitation 4.07  
Year to date precipitation 37.98  
Wind
Wind Speed 2 mph   
Max Wind Speed 6 mph   
Max Gust Speed mph   
Visibility 7 miles   
Events     

Key: T is trace of precipitation, MM is missing value
Source: NWS Daily Summary
Time(PST)TemperatureDew PointHumidity Pressure Visibility Wind DirectionWind SpeedGust SpeedPrecipitationEvents Conditions
12:21 AM 41.0°F 41.0°F 100% 30.24 in 2.5 miles North 4.6 mph - N/A   Overcast
12:46 AM 41.0°F 41.0°F 100% 30.23 in 1.5 miles North 3.5 mph - N/A   Overcast
12:53 AM 41.0°F 41.0°F 100% 30.24 in 1.2 miles North 5.8 mph - N/A   Overcast
1:43 AM 41.0°F 41.0°F 100% 30.22 in 2.5 miles Calm Calm - N/A   Overcast
1:53 AM 41.0°F 41.0°F 100% 30.23 in 4.0 miles Calm Calm - N/A   Overcast
2:53 AM 41.0°F 41.0°F 100% 30.22 in 3.0 miles North 3.5 mph - N/A   Overcast
3:37 AM 39.2°F 39.2°F 100% 30.19 in 2.0 miles Calm Calm - N/A   Overcast
3:49 AM 39.2°F 39.2°F 100% 30.18 in 1.8 miles Calm Calm - N/A   Overcast
3:53 AM 39.0°F 39.0°F 100% 30.19 in 1.8 miles Calm Calm - N/A   Overcast
4:10 AM 39.2°F 39.2°F 100% 30.18 in 2.5 miles NE 3.5 mph - N/A   Overcast
4:24 AM 39.2°F 39.2°F 100% 30.18 in 3.0 miles NNE 3.5 mph - N/A   Overcast
4:53 AM 39.0°F 39.0°F 100% 30.19 in 10.0 miles North 4.6 mph - N/A   Overcast
5:53 AM 39.9°F 39.9°F 100% 30.17 in 10.0 miles Calm Calm - N/A   Overcast
6:25 AM 39.2°F 39.2°F 100% 30.14 in 2.0 miles East 4.6 mph - N/A   Overcast
6:32 AM 39.2°F 39.2°F 100% 30.14 in 1.5 miles East 3.5 mph - N/A   Overcast
6:53 AM 39.9°F 39.9°F 100% 30.15 in 2.0 miles Calm Calm - N/A   Overcast
7:13 AM 39.2°F 39.2°F 100% 30.13 in 5.0 miles Calm Calm - N/A   Overcast
7:53 AM 39.9°F 39.9°F 100% 30.14 in 5.0 miles Calm Calm - N/A   Overcast
8:53 AM 41.0°F 39.9°F 96% 30.12 in 10.0 miles NE 5.8 mph - N/A   Overcast
9:53 AM 43.0°F 41.0°F 93% 30.10 in 10.0 miles Calm Calm - N/A   Overcast
10:53 AM 42.1°F 41.0°F 96% 30.08 in 10.0 miles East 4.6 mph - N/A   Overcast
11:39 AM 44.6°F 41.0°F 87% 30.04 in 10.0 miles Calm Calm - N/A   Overcast
11:53 AM 44.1°F 41.0°F 89% 30.05 in 10.0 miles Variable 3.5 mph - N/A   Overcast
12:53 PM 46.0°F 42.1°F 86% 30.03 in 10.0 miles ESE 5.8 mph - N/A   Overcast
1:23 PM 46.4°F 42.8°F 87% 30.00 in 10.0 miles Calm Calm - N/A   Overcast
1:53 PM 50.0°F 43.0°F 77% 30.01 in 10.0 miles Calm Calm - N/A   Overcast
2:26 PM 48.2°F 42.8°F 82% 29.99 in 10.0 miles SE 4.6 mph - N/A   Scattered Clouds
2:53 PM 48.0°F 42.1°F 80% 30.00 in 10.0 miles ENE 4.6 mph - N/A   Clear
3:53 PM 46.9°F 42.1°F 83% 29.99 in 10.0 miles ESE 4.6 mph - N/A   Clear
4:08 PM 46.4°F 41.0°F 81% 29.97 in 10.0 miles East 3.5 mph - N/A   Mostly Cloudy
4:53 PM 45.0°F 41.0°F 86% 29.98 in 10.0 miles East 4.6 mph - N/A   Overcast
5:53 PM 44.1°F 41.0°F 89% 29.98 in 10.0 miles Calm Calm - N/A   Overcast
6:29 PM 42.8°F 41.0°F 93% 29.96 in 10.0 miles Calm Calm - N/A   Overcast
6:53 PM 43.0°F 41.0°F 93% 29.98 in 10.0 miles Calm Calm - N/A   Overcast
7:02 PM 42.8°F 41.0°F 93% 29.96 in 10.0 miles Calm Calm - N/A   Overcast
7:16 PM 42.8°F 41.0°F 93% 29.95 in 10.0 miles East 3.5 mph - N/A   Overcast
7:31 PM 42.8°F 41.0°F 93% 29.95 in 10.0 miles Calm Calm - N/A   Overcast
7:53 PM 42.1°F 41.0°F 96% 29.96 in 10.0 miles Calm Calm - N/A   Overcast
8:50 PM 42.8°F 41.0°F 93% 29.95 in 10.0 miles Calm Calm - N/A   Overcast
8:53 PM 42.1°F 41.0°F 96% 29.96 in 10.0 miles Calm Calm - N/A   Overcast
9:53 PM 41.0°F 41.0°F 100% 29.95 in 10.0 miles Calm Calm - N/A   Overcast
10:53 PM 41.0°F 39.9°F 96% 29.94 in 10.0 miles Calm Calm - N/A   Overcast
11:10 PM 41.0°F 39.2°F 93% 29.93 in 10.0 miles Calm Calm - N/A   Overcast
11:53 PM 41.0°F 39.9°F 96% 29.94 in 10.0 miles Calm Calm - N/A   Overcast
Moon Phase
Nov. 15 Nov. 20 Nov. 28 Dec. 06 Dec. 13
Sunrise:07:17 AM (PST) Moon Rise:09:23 AM (PST)11/15
Sunset:04:36 PM (PST) Moon Set:06:29 PM (PST)11/15

Copyright © 2014 The Weather Underground, Inc.